Flag for Germany Weather past 2 weeks in Garmisch-Partenkirchen, Bavaria, Germany

Now
63 °F

Scattered clouds.


Feels Like: 63 °F
Forecast: 38 / 62 °F
Wind: 6 mph from Southeast

Location: Innsbruck-Flughafen

Current Time: Sep 22, 2014 at 1:13:49 PM

Latest Report: Sep 22, 2014 at 12:50 PM


Visibility: N/A

Pressure: 30.01 "Hg

Humidity: 59%

Dew point: 48 °F

Location of Garmisch-PartenkirchenLocation

Historic Weather in Garmisch-Partenkirchen — Graph

°F

Garmisch-Partenkirchen temperature yesterday

Maximum temperature yesterday: 73 °F (at 3:50 PM)
Minimum temperature yesterday: 52 °F (at 5:50 AM)
Average temperature yesterday: 60 °F

Past Weeks' High & Low Weather Summary

 TemperatureHumidityPressure
High77 °F (Sep 7, 4:50 PM)100% (Sep 8, 5:50 AM)30.15 "Hg (Sep 8, 5:50 AM)
Low48 °F (Sep 16, 6:20 AM)36% (Sep 7, 4:50 PM)29.89 "Hg (Sep 11, 1:50 PM)
Average60 °F79%30.03 "Hg
* Reported Sep 7 11:20 AM — Sep 22 11:50 AM, Garmisch-Partenkirchen, Weather by CustomWeather, © 2014

Note: Actual official high and low records may vary slightly from our data, if they occured in-between our weather recording intervals... More about our weather records

Advertising

Garmisch-Partenkirchen weather history for previous 24 hours

 ConditionsComfort  
Time TempWeatherWind HumidityBarometerVisibility
11:50 AM
Sep 22
59 °FScattered clouds.8 mph72%30.04 "HgN/A
11:20 AM59 °FScattered clouds.6 mph72%30.04 "HgN/A
10:50 AM59 °FScattered clouds.5 mph68%30.04 "HgN/A
10:20 AM59 °FScattered clouds.1 mph72%30.04 "HgN/A
9:50 AM55 °FBroken clouds.1 mph82%30.07 "HgN/A
9:20 AM54 °FBroken clouds.5 mph82%30.04 "HgN/A
8:50 AM52 °FSprinkles. Broken clouds.3 mph94%30.07 "HgN/A
8:20 AM54 °FSprinkles. Broken clouds.5 mph94%30.04 "HgN/A
7:50 AM52 °FRain showers. Partly cloudy.5 mph94%30.04 "HgN/A
7:20 AM52 °FSprinkles. Partly cloudy.2 mph94%30.04 "HgN/A
6:50 AM52 °FLight rain. Partly cloudy.1 mph100%30.04 "HgN/A
6:20 AM52 °FPartly cloudy.1 mph94%30.04 "HgN/A
5:50 AM54 °FLight rain. Partly cloudy.2 mph94%30.04 "HgN/A
5:20 AM54 °FLight rain. Partly cloudy.1 mph94%30.04 "HgN/A
4:50 AM54 °FLight rain. Partly cloudy.1 mph94%30.04 "HgN/A
4:20 AM54 °FRain. Partly cloudy.2 mph88%30.04 "HgN/A
3:50 AM55 °FLight rain. Partly cloudy.1 mph82%30.04 "HgN/A
3:20 AM55 °FPassing clouds.2 mph88%30.04 "HgN/A
2:50 AM55 °FPassing clouds.3 mph82%30.01 "HgN/A
1:50 AM57 °FLight rain. Passing clouds.3 mph82%30.01 "HgN/A
1:20 AM57 °FLight rain. Partly cloudy.1 mph94%30.01 "HgN/A
12:50 AM57 °FLight rain. Passing clouds.3 mph94%29.98 "HgN/A
12:20 AM57 °FRain. Passing clouds.3 mph94%29.98 "HgN/A
11:50 PM
Sep 21
57 °FLight rain. Passing clouds.1 mph94%29.98 "HgN/A
11:20 PM57 °FRain. Passing clouds.1 mph94%29.98 "HgN/A
10:50 PM57 °FPassing clouds.1 mph94%29.98 "HgN/A
10:20 PM57 °FPassing clouds.1 mph94%29.98 "HgN/A
9:50 PM57 °FSprinkles. Passing clouds.1 mph94%29.98 "HgN/A
9:20 PM57 °FSprinkles. Passing clouds.1 mph94%29.98 "HgN/A
8:50 PM59 °FPassing clouds.1 mph88%29.98 "HgN/A
8:20 PM59 °FPassing clouds.3 mph88%29.95 "HgN/A
7:50 PM59 °FSprinkles. Broken clouds.2 mph94%29.95 "HgN/A
7:20 PM61 °FPartly sunny.6 mph88%29.95 "HgN/A
6:50 PM64 °FRain showers. Partly sunny.14 mph73%29.92 "HgN/A
6:20 PM68 °FBroken clouds.5 mph64%29.89 "HgN/A
5:50 PM70 °FBroken clouds.10 mph60%29.89 "HgN/A
5:20 PM70 °FBroken clouds.12 mph60%29.92 "HgN/A
4:50 PM70 °FScattered clouds.7 mph60%29.92 "HgN/A
4:20 PM73 °FScattered clouds.3 mph47%29.92 "HgN/A
3:50 PM73 °FScattered clouds.2 mph53%29.92 "HgN/A
3:20 PM70 °FScattered clouds.5 mph60%29.95 "HgN/A
2:50 PM72 °FScattered clouds.2 mph53%29.95 "HgN/A
2:20 PM72 °FScattered clouds.5 mph57%29.95 "HgN/A
1:50 PM70 °FScattered clouds.5 mph60%29.98 "HgN/A
1:20 PM66 °FScattered clouds.7 mph68%30.01 "HgN/A
Weather by CustomWeather, © 2014

See weather overviewHow to use our weather pages